Weather History for Nacogdoches, TX

Change the Weather History Date:

Thursday, December 1, 2011

  Actual Average Record
Temperature  
Mean Temperature 50 °F -  
Max Temperature 69 °F 61 °F 78 °F (2012)
Min Temperature 32 °F 41 °F 24 °F (2010)
Degree Days  
Heating Degree Days 14    
Moisture  
Dew Point 41 °F    
Average Humidity 72    
Maximum Humidity 87    
Minimum Humidity 53    
Precipitation  
Precipitation 0.00 in - - ()
Sea Level Pressure  
Sea Level Pressure 30.20 in    
Wind  
Wind Speed 4 mph (SE)    
Max Wind Speed 13 mph    
Max Gust Speed 21 mph    
Visibility 10 miles    
Events      
Averages and records for this station are not official NWS values.
T = Trace of Precipitation, MM = Missing Value Source: NWS Daily Summary

Daily Weather History Graph

Daily Weather History Graph

Search for Another Location

Airport:

Trip Planner

Search our weather history database for the weather conditions in past years. The results will help you decide how hot, cold, wet, or windy it might be!

Date:

Astronomy

Dec. 01, 2011 Rise Set
Actual Time 7:00 AM CST 5:15 PM CST
Civil Twilight 6:33 AM CST 5:41 PM CST
Nautical Twilight 6:03 AM CST 6:11 PM CST
Astronomical Twilight 5:34 AM CST 6:41 PM CST
Moon 12:01 PM CST (12/1) 11:57 PM CST (12/1)
Length of Visible Light 11h 07m
Length of Day
10h 14m
Waxing Crescent, 43% of the Moon is Illuminated
Dec 1
Waxing Crescent
Dec 2
First Quarter
Dec 10
Full
Dec 17
Last Quarter
Dec 24
New

Hourly Weather History & Observations

Time (CST) Temp. Windchill Dew Point Humidity Pressure Visibility Wind Dir Wind Speed Gust Speed Precip Events Conditions
12:15 AM 35.6 °F - 28.4 °F 75% 30.16 in 10.0 mi Calm Calm - N/A   Clear
12:35 AM 33.8 °F - 28.4 °F 81% 30.16 in 10.0 mi Calm Calm - N/A   Clear
1:15 AM 33.8 °F - 28.4 °F 81% 30.15 in 10.0 mi Calm Calm - N/A   Clear
1:35 AM 33.8 °F - 28.4 °F 81% 30.15 in 10.0 mi Calm Calm - N/A   Clear
1:55 AM 33.8 °F - 28.4 °F 81% 30.15 in 10.0 mi Calm Calm - N/A   Clear
2:15 AM 33.8 °F - 28.4 °F 81% 30.16 in 10.0 mi Calm Calm - N/A   Clear
2:35 AM 33.8 °F 30.8 °F 26.6 °F 75% 30.15 in 10.0 mi SE 3.5 mph - N/A   Clear
2:55 AM 33.8 °F 29.6 °F 26.6 °F 75% 30.15 in 10.0 mi SE 4.6 mph - N/A   Clear
3:15 AM 35.6 °F 31.7 °F 30.2 °F 81% 30.15 in 10.0 mi SE 4.6 mph - N/A   Clear
3:35 AM 37.4 °F 33.8 °F 33.8 °F 87% 30.15 in 10.0 mi SE 4.6 mph - N/A   Clear
3:55 AM 35.6 °F 32.8 °F 30.2 °F 81% 30.16 in 10.0 mi SE 3.5 mph - N/A   Clear
4:35 AM 33.8 °F - 26.6 °F 75% 30.17 in 10.0 mi Calm Calm - N/A   Clear
4:55 AM 33.8 °F - 26.6 °F 75% 30.17 in 10.0 mi Calm Calm - N/A   Clear
5:15 AM 33.8 °F - 28.4 °F 81% 30.18 in 10.0 mi Calm Calm - N/A   Clear
5:35 AM 32.0 °F - 26.6 °F 80% 30.18 in 10.0 mi Calm Calm - N/A   Clear
5:55 AM 32.0 °F - 26.6 °F 80% 30.19 in 10.0 mi Calm Calm - N/A   Clear
6:15 AM 32.0 °F - 26.6 °F 80% 30.19 in 10.0 mi Calm Calm - N/A   Clear
6:35 AM 32.0 °F 28.7 °F 26.6 °F 80% 30.19 in 10.0 mi SE 3.5 mph - N/A   Clear
6:55 AM 32.0 °F 28.7 °F 26.6 °F 80% 30.21 in 10.0 mi SE 3.5 mph - N/A   Clear
7:15 AM 37.4 °F 33.8 °F 33.8 °F 87% 30.20 in 10.0 mi SE 4.6 mph - N/A   Clear
7:35 AM 39.2 °F 35.0 °F 33.8 °F 81% 30.20 in 10.0 mi SE 5.8 mph - N/A   Clear
7:55 AM 42.8 °F 38.6 °F 35.6 °F 76% 30.20 in 10.0 mi SE 6.9 mph - N/A   Clear
8:15 AM 42.8 °F 38.6 °F 37.4 °F 81% 30.22 in 10.0 mi SE 6.9 mph - N/A   Clear
8:35 AM 44.6 °F 41.4 °F 37.4 °F 76% 30.24 in 10.0 mi SE 5.8 mph - N/A   Clear
8:55 AM 46.4 °F 42.4 °F 37.4 °F 71% 30.23 in 10.0 mi SE 8.1 mph - N/A   Clear
9:15 AM 48.2 °F - 41.0 °F 76% 30.25 in 10.0 mi SSE 8.1 mph - N/A   Clear
9:35 AM 51.8 °F - 41.0 °F 67% 30.24 in 10.0 mi SE 10.4 mph - N/A   Clear
9:55 AM 51.8 °F - 42.8 °F 71% 30.24 in 10.0 mi SE 9.2 mph - N/A   Clear
10:15 AM 53.6 °F - 44.6 °F 72% 30.25 in 10.0 mi SSE 11.5 mph - N/A   Clear
10:35 AM 55.4 °F - 46.4 °F 72% 30.25 in 10.0 mi SSE 11.5 mph - N/A   Clear
10:55 AM 59.0 °F - 46.4 °F 63% 30.24 in 10.0 mi SSE 12.7 mph - N/A   Clear
11:15 AM 57.2 °F - 46.4 °F 67% 30.24 in 10.0 mi SE 10.4 mph - N/A   Clear
11:35 AM 62.6 °F - 48.2 °F 59% 30.22 in 10.0 mi SSE 11.5 mph - N/A   Clear
11:55 AM 60.8 °F - 48.2 °F 63% 30.22 in 10.0 mi SE 3.5 mph - N/A   Clear
12:15 PM 62.6 °F - 50.0 °F 63% 30.22 in 10.0 mi SE 8.1 mph - N/A   Clear
12:35 PM 64.4 °F - 50.0 °F 59% 30.20 in 10.0 mi SE 9.2 mph - N/A   Clear
1:15 PM 66.2 °F - 51.8 °F 60% 30.19 in 10.0 mi South 10.4 mph - N/A   Clear
1:35 PM 66.2 °F - 51.8 °F 60% 30.18 in 10.0 mi SSW 8.1 mph - N/A   Clear
2:15 PM 64.4 °F - 53.6 °F 68% 30.19 in 10.0 mi SE 9.2 mph - N/A   Scattered Clouds
2:35 PM 69.8 °F - 51.8 °F 53% 30.18 in 10.0 mi SE 10.4 mph 20.7 mph N/A   Scattered Clouds
3:15 PM 68.0 °F - 51.8 °F 56% 30.18 in 10.0 mi ESE 9.2 mph - N/A   Clear
3:35 PM 68.0 °F - 51.8 °F 56% 30.20 in 10.0 mi ESE 9.2 mph - N/A   Clear
3:55 PM 68.0 °F - 53.6 °F 60% 30.19 in 10.0 mi SSE 8.1 mph - N/A   Clear
4:15 PM 66.2 °F - 51.8 °F 60% 30.19 in 10.0 mi ESE 9.2 mph - N/A   Clear
4:35 PM 66.2 °F - 51.8 °F 60% 30.19 in 10.0 mi ESE 8.1 mph - N/A   Clear
4:55 PM 64.4 °F - 51.8 °F 64% 30.20 in 10.0 mi SE 5.8 mph - N/A   Scattered Clouds
5:15 PM 62.6 °F - 51.8 °F 68% 30.20 in 10.0 mi ESE 5.8 mph - N/A   Clear
5:35 PM 62.6 °F - 51.8 °F 68% 30.20 in 10.0 mi ESE 5.8 mph - N/A   Clear
5:55 PM 60.8 °F - 50.0 °F 68% 30.21 in 10.0 mi ESE 5.8 mph - N/A   Clear
6:15 PM 59.0 °F - 50.0 °F 72% 30.22 in 10.0 mi ESE 4.6 mph - N/A   Clear
6:35 PM 57.2 °F - 50.0 °F 77% 30.23 in 10.0 mi ESE 6.9 mph - N/A   Clear
6:55 PM 60.8 °F - 50.0 °F 68% 30.25 in 10.0 mi SE 3.5 mph - N/A   Clear
7:15 PM 59.0 °F - 51.8 °F 77% 30.26 in 10.0 mi ESE 5.8 mph - N/A   Mostly Cloudy
7:35 PM 60.8 °F - 51.8 °F 72% 30.26 in 10.0 mi ESE 6.9 mph - N/A   Overcast
7:55 PM 59.0 °F - 51.8 °F 77% 30.27 in 10.0 mi ESE 5.8 mph - N/A   Overcast
8:15 PM 59.0 °F - 51.8 °F 77% 30.28 in 10.0 mi SE 4.6 mph - N/A   Overcast
8:35 PM 59.0 °F - 51.8 °F 77% 30.28 in 10.0 mi SE 6.9 mph - N/A   Overcast
8:55 PM 57.2 °F - 50.0 °F 77% 30.28 in 10.0 mi SE 5.8 mph - N/A   Mostly Cloudy
9:15 PM 57.2 °F - 50.0 °F 77% 30.29 in 10.0 mi SE 5.8 mph - N/A   Mostly Cloudy
9:35 PM 57.2 °F - 50.0 °F 77% 30.30 in 10.0 mi ESE 5.8 mph - N/A   Mostly Cloudy
9:55 PM 57.2 °F - 50.0 °F 77% 30.30 in 10.0 mi ESE 6.9 mph - N/A   Mostly Cloudy
10:15 PM 55.4 °F - 50.0 °F 82% 30.30 in 10.0 mi ESE 6.9 mph - N/A   Mostly Cloudy
10:35 PM 55.4 °F - 48.2 °F 77% 30.30 in 10.0 mi SE 5.8 mph - N/A   Partly Cloudy
11:15 PM 55.4 °F - 48.2 °F 77% 30.31 in 10.0 mi SE 5.8 mph - N/A   Clear
11:35 PM 53.6 °F - 46.4 °F 77% 30.31 in 10.0 mi SE 5.8 mph - N/A   Partly Cloudy
11:55 PM 53.6 °F - 48.2 °F 82% 30.31 in 10.0 mi SE 6.9 mph - N/A   Scattered Clouds